Temp
86 80 77 83 86 71 64 60 58 72 71 66 65 63 64 67 69 73 84 85 88 88 92 94 96 97 95 93 91 91 84 88 88 88 89 82 81 84 87 84 92 92 92 92
81 77 86 87 88 85 80 67 56 67 73 70 63 60 64 63 66 69 77 86 88 90 89 90 93 96 95 93 91 90 88 86 86 90 81 85 81 85 85 83 92 92 93 92
79 84 89 85 83 81 81 70 62 56 67 66 62 57 60 63 64 68 74 86 89 91 91 91 91 95 96 92 91 90 90 86 89 82 85 90 89 84 91 86 90 92 93 92
82 90 85 81 80 84 75 74 65 60 72 58 63 51 62 61 61 63 77 80 87 88 86 93 93 95 96 93 93 91 90 88 89 90 85 85 81 80 87 76 80 88 92 93
79 83 82 78 80 86 77 84 66 64 71 70 65 63 63 68 59 61 77 80 85 87 90 83 94 95 98 96 94 93 90 89 90 89 86 88 87 85 91 78 85 80 90 92
84 90 87 85 88 87 86 83 83 79 76 54 71 70 64 67 63 62 68 76 83 87 86 89 96 96 95 97 92 93 89 87 89 88 88 87 85 87 82 82 84 88 88 92
78 79 88 89 83 86 84 79 66 63 50 65 74 71 71 77 69 67 67 74 84 79 92 88 92 87 90 90 91 90 89 86 88 88 88 88 87 86 85 86 89 75 76 76
71 68 81 86 84 79 79 81 69 58 63 65 73 66 70 82 81 83 82 84 88 89 82 90 92 85 92 90 94 91 89 86 88 88 88 89 88 90 90 90 86 92 78 93
73 72 86 86 88 87 79 74 85 71 75 61 69 72 78 84 83 83 83 88 85 89 85 89 92 93 86 90 91 91 87 85 89 90 88 86 86 88 85 87 89 90 90 82
79 70 83 84 87 88 84 88 74 77 60 55 65 70 71 72 76 83 84 86 88 88 92 88 88 90 84 79 83 82 83 81 85 90 90 88 88 88 89 89 87 88 80 82
81 77 76 81 77 77 79 78 80 81 77 66 62 69 80 77 81 79 86 88 90 90 90 90 88 90 90 86 83 74 78 80 81 86 87 85 89 86 89 89 89 89 90 88
81 77 70 75 85 87 86 81 81 72 68 76 73 58 85 83 83 83 78 79 81 84 88 89 91 83 82 79 74 76 72 73 75 77 82 84 87 89 84 88 89 90 88 89
79 74 66 68 80 83 79 82 84 84 83 72 70 68 83 82 78 79 77 76 77 75 78 80 82 83 81 77 81 81 77 73 73 74 77 77 84 84 82 82 88 90 89 87
74 75 71 64 69 79 73 78 83 83 74 75 75 70 77 80 78 76 73 71 70 72 72 73 75 77 78 80 79 79 77 76 74 74 71 72 73 74 75 77 77 80 87 87
78 68 74 75 76 79 79 78 79 77 80 75 78 76 80 80 79 79 75 73 71 71 71 66 68 68 74 77 79 80 80 77 77 78 79 77 72 73 75 75 77 78 81 86
78 65 70 71 74 78 76 79 80 80 81 81 79 77 84 85 83 79 76 75 74 74 72 70 65 66 65 68 77 79 79 79 80 79 78 78 78 78 77 79 76 76 78 80
69 63 66 58 74 73 67 75 77 79 83 82 76 74 84 81 80 79 77 76 75 75 73 71 68 67 65 63 66 69 72 77 77 75 74 75 76 77 77 78 76 72 75 79
67 54 58 62 61 56 68 79 81 77 79 82 80 80 81 82 83 83 83 80 77 75 73 73 70 65 62 60 61 63 63 66 69 69 68 69 70 71 72 74 75 70 74 77
74 65 59 52 47 60 69 73 74 74 73 80 78 79 81 83 82 78 83 83 79 77 77 75 72 66 61 58 57 59 60 59 60 64 65 67 69 71 72 72 75 75 74 77
75 72 64 65 51 52 55 75 79 78 67 80 80 78 79 79 74 75 81 82 81 78 75 73 69 65 62 59 59 57 56 58 56 56 60 68 67 67 69 72 73 75 77 77
66 66 63 64 61 52 69 77 79 62 60 78 81 80 79 77 75 79 82 79 80 76 74 71 69 63 62 63 62 58 58 55 58 60 61 60 64 65 67 67 68 68 72 75
63 59 61 64 51 54 76 75 67 71 77 78 79 80 79 77 79 79 79 77 77 75 74 75 72 71 66 65 62 57 57 62 59 59 60 60 63 69 68 67 67 68 68 69
59 68 61 66 62 71 76 74 77 80 76 77 79 81 81 78 78 78 77 76 76 75 74 75 72 69 68 69 72 59 59 60 61 60 58 62 62 64 66 66 67 71 69 67
71 72 66 66 71 72 75 77 78 79 77 79 81 82 81 78 79 77 77 76 75 75 74 75 73 70 68 66 65 65 68 68 64 62 63 61 60 61 65 66 72 76 75 73
74 71 68 68 71 73 74 76 77 77 78 78 79 80 80 79 78 78 76 76 76 74 75 75 72 72 71 72 71 70 66 65 64 65 66 65 67 65 68 68 61 66 61 57
75 70 66 67 74 71 73 77 78 76 76 77 77 76 77 79 77 77 77 76 76 75 75 74 74 73 72 71 70 71 71 70 70 70 71 72 75 72 73 70 66 47 48 46
MSLP
1005.49 1004.75 1003.45 1002.83 1003.05 1004.98 1007.21 1008.10 1008.53 1008.78 1010.53 1011.35 1012.85 1013.72 1013.99 1013.81 1013.14 1012.20 1011.10 1010.93 1010.84 1011.34 1011.96 1012.71 1013.22 1013.90 1014.75 1015.80 1016.67 1017.07 1017.71 1018.36 1018.94 1019.05 1018.43 1018.91 1019.12 1019.04 1019.14 1019.35 1019.55 1019.88 1019.86 1020.05
1004.60 1003.35 1002.71 1002.37 1002.28 1003.18 1005.17 1007.72 1009.39 1008.53 1010.13 1010.61 1012.67 1013.79 1014.53 1013.89 1014.27 1013.70 1012.18 1010.99 1010.64 1011.01 1011.82 1012.65 1013.05 1013.54 1014.51 1015.56 1016.31 1017.03 1017.66 1018.68 1019.21 1018.97 1018.98 1018.93 1018.99 1018.99 1019.04 1019.41 1019.47 1019.61 1019.84 1020.15
1003.03 1002.15 1002.49 1002.11 1002.38 1002.96 1003.39 1005.90 1007.35 1008.80 1010.05 1011.29 1012.73 1013.78 1014.76 1015.05 1015.26 1014.76 1013.22 1011.08 1010.64 1010.61 1011.02 1011.98 1012.73 1013.05 1013.91 1015.28 1016.19 1016.89 1017.50 1018.59 1018.75 1019.03 1019.12 1018.99 1018.81 1019.35 1019.19 1019.63 1019.46 1019.49 1019.77 1020.02
1002.87 1001.85 1002.03 1002.16 1002.28 1002.56 1002.29 1004.02 1006.42 1005.37 1007.77 1009.99 1011.57 1012.82 1013.75 1014.77 1015.27 1014.76 1012.76 1011.33 1010.57 1011.00 1011.42 1011.38 1012.19 1012.50 1013.20 1014.54 1015.77 1016.73 1017.53 1018.13 1018.71 1018.71 1018.87 1019.48 1019.88 1019.90 1019.80 1019.88 1019.59 1019.39 1019.60 1019.77
1002.65 1001.87 1001.89 1002.15 1002.25 1002.27 1002.89 1004.05 1005.20 1006.19 1005.96 1007.86 1010.07 1010.29 1011.43 1013.23 1013.85 1013.67 1012.18 1011.25 1011.20 1010.68 1010.93 1011.35 1011.36 1012.09 1012.63 1013.82 1014.97 1016.15 1017.31 1017.91 1018.27 1018.81 1019.06 1019.23 1019.39 1019.60 1019.32 1019.86 1019.56 1019.97 1019.66 1019.61
1002.10 1002.22 1002.23 1002.10 1002.01 1002.05 1002.80 1003.19 1003.05 1003.75 1004.77 1006.19 1006.69 1007.05 1008.81 1010.39 1011.96 1013.03 1012.34 1011.63 1010.75 1010.55 1011.20 1011.25 1010.72 1011.47 1012.46 1013.34 1014.69 1015.51 1017.00 1017.81 1018.32 1018.89 1019.23 1019.35 1019.69 1019.50 1019.80 1019.94 1019.79 1019.16 1019.28 1019.25
1002.81 1002.66 1002.16 1002.15 1001.66 1001.97 1002.60 1002.54 1002.29 1002.70 1005.05 1003.21 1004.69 1005.31 1005.92 1007.99 1010.59 1011.54 1011.37 1010.52 1009.99 1010.42 1009.90 1010.54 1010.51 1011.46 1012.39 1013.21 1014.35 1015.26 1016.67 1017.62 1018.20 1018.79 1019.06 1019.41 1019.62 1019.97 1019.84 1019.71 1019.46 1020.16 1019.69 1019.58
1002.10 1001.93 1001.95 1002.04 1001.31 1001.47 1002.13 1001.47 1001.36 1001.56 1002.19 1002.62 1004.39 1004.08 1005.01 1006.21 1007.43 1008.45 1009.37 1009.33 1008.97 1009.11 1010.43 1009.83 1010.40 1011.28 1012.15 1012.94 1013.93 1015.10 1016.37 1017.34 1017.93 1018.36 1018.87 1019.14 1019.50 1019.43 1019.45 1019.41 1019.19 1018.72 1018.71 1018.03
1001.25 1001.26 1001.59 1001.99 1001.87 1001.45 1001.53 1001.54 1001.19 1001.87 1001.92 1003.79 1003.65 1004.30 1005.07 1005.10 1006.45 1007.22 1007.82 1007.70 1008.45 1008.26 1009.01 1009.45 1009.93 1010.67 1012.13 1013.17 1014.09 1015.03 1016.55 1016.94 1017.36 1017.94 1018.62 1019.39 1019.75 1019.51 1019.65 1019.70 1019.42 1018.76 1018.67 1020.04
1001.67 1000.99 1001.13 1001.99 1002.37 1001.74 1001.15 1001.34 1001.11 1000.85 1001.52 1002.23 1002.72 1003.02 1003.27 1005.07 1005.63 1006.30 1006.66 1006.80 1007.80 1008.52 1008.32 1009.09 1010.16 1011.40 1012.94 1014.28 1015.38 1016.33 1017.10 1017.47 1017.49 1017.66 1018.13 1018.87 1019.22 1019.49 1019.49 1019.52 1019.49 1018.90 1018.85 1018.99
1003.06 1001.95 1001.29 1002.10 1001.90 1001.25 1001.63 1001.11 1000.95 1000.59 1000.60 1000.68 1001.79 1002.69 1003.21 1004.13 1004.84 1006.11 1006.36 1006.57 1007.24 1008.09 1008.63 1009.10 1009.83 1011.01 1012.46 1014.51 1015.82 1016.47 1017.02 1017.71 1018.14 1018.22 1018.28 1018.24 1018.61 1018.97 1019.18 1019.31 1019.31 1019.12 1018.61 1018.59
1004.08 1002.84 1001.71 1001.19 1001.45 1001.73 1001.02 1001.02 1001.01 1000.65 1000.67 1000.37 1000.92 1003.91 1004.11 1004.48 1005.45 1006.19 1007.80 1008.71 1009.02 1009.07 1009.21 1009.79 1010.53 1011.99 1013.43 1014.96 1016.25 1016.50 1016.91 1017.51 1018.74 1018.93 1018.94 1019.03 1018.94 1018.86 1018.88 1018.97 1019.23 1019.34 1019.30 1019.03
1004.78 1003.67 1002.08 1001.46 1001.25 1001.54 1000.95 1000.93 1000.92 1000.43 1000.43 1000.07 1000.45 1002.57 1003.94 1005.38 1006.72 1007.39 1008.44 1009.84 1010.61 1011.44 1011.69 1011.87 1012.38 1012.95 1014.02 1015.00 1015.69 1016.49 1017.20 1017.43 1018.28 1018.93 1019.09 1019.27 1019.03 1019.30 1019.37 1019.48 1019.34 1019.25 1019.27 1019.60
1006.62 1004.07 1002.65 1001.93 1001.41 1001.07 1001.47 1000.97 1000.49 1000.34 1000.17 1000.25 1000.98 1002.43 1003.64 1005.07 1006.52 1008.09 1009.26 1010.84 1011.79 1012.48 1013.26 1013.66 1014.18 1014.45 1014.86 1015.20 1015.95 1016.48 1017.21 1017.78 1018.12 1018.83 1019.19 1019.53 1019.58 1019.94 1020.00 1019.85 1019.96 1019.69 1019.21 1019.33
1006.44 1004.93 1003.84 1002.34 1002.84 1001.16 1000.79 1001.01 1000.70 1000.64 1000.17 999.99 1000.25 1000.87 1003.01 1004.27 1005.86 1007.69 1009.63 1011.10 1012.26 1013.13 1013.85 1014.83 1015.43 1015.89 1015.81 1015.71 1015.75 1016.31 1016.95 1017.67 1018.05 1018.30 1018.81 1019.35 1019.62 1020.00 1020.16 1020.05 1019.96 1019.85 1019.67 1019.26
1006.98 1006.19 1005.33 1003.39 1003.77 1001.61 1000.95 1001.08 1001.33 1001.30 1001.12 1000.85 1001.52 1002.53 1001.71 1003.83 1005.87 1007.78 1009.47 1010.93 1011.87 1012.77 1013.81 1015.06 1016.09 1016.70 1016.90 1016.97 1016.35 1016.22 1016.68 1017.14 1017.37 1017.98 1018.57 1019.05 1019.39 1019.85 1019.90 1019.93 1019.97 1019.89 1019.84 1019.76
1008.45 1008.45 1006.57 1005.71 1003.91 1003.82 1002.68 1001.99 1001.58 1001.38 1001.37 1001.52 1002.19 1003.25 1003.71 1005.25 1006.62 1007.67 1009.31 1010.74 1011.79 1012.79 1013.96 1015.17 1016.22 1016.96 1017.55 1017.98 1017.91 1017.65 1017.55 1017.32 1017.65 1018.43 1018.85 1019.21 1019.53 1019.91 1019.94 1020.19 1020.27 1020.26 1020.07 1019.99
1008.81 1009.97 1008.26 1006.81 1006.55 1004.70 1004.74 1003.89 1003.21 1002.68 1002.87 1003.37 1003.97 1004.82 1005.37 1006.19 1007.04 1008.03 1009.25 1010.47 1011.66 1013.02 1014.13 1015.23 1016.52 1017.70 1018.48 1018.79 1018.82 1018.74 1018.85 1018.81 1018.93 1019.36 1019.84 1020.14 1020.05 1020.58 1020.61 1020.73 1020.93 1021.01 1020.69 1020.38
1007.96 1008.59 1008.49 1008.41 1009.33 1008.10 1006.28 1005.70 1005.17 1004.13 1004.58 1005.43 1005.41 1005.80 1006.19 1006.90 1007.80 1009.07 1009.83 1010.66 1011.87 1013.20 1014.24 1015.35 1016.82 1018.07 1018.95 1019.35 1019.64 1019.77 1019.92 1020.08 1020.19 1020.45 1020.62 1020.75 1020.64 1020.81 1020.99 1020.96 1020.83 1020.89 1020.76 1020.63
1007.17 1007.81 1008.05 1007.23 1008.19 1007.92 1008.42 1007.43 1007.13 1006.48 1005.79 1006.37 1006.52 1006.87 1007.32 1008.16 1008.24 1009.21 1010.70 1011.47 1012.34 1013.51 1014.82 1016.09 1017.64 1018.70 1019.45 1020.03 1020.29 1020.56 1020.99 1021.20 1021.45 1021.57 1021.71 1021.38 1021.49 1021.58 1021.56 1021.43 1021.41 1021.31 1021.01 1020.81
1007.71 1007.82 1007.46 1007.23 1007.69 1010.12 1009.41 1008.37 1007.94 1007.41 1008.61 1007.86 1007.51 1007.85 1008.38 1008.84 1010.23 1010.81 1011.43 1012.39 1013.29 1014.28 1015.40 1016.79 1017.90 1018.88 1019.69 1020.23 1020.73 1021.10 1021.65 1021.90 1022.14 1022.32 1022.41 1022.41 1022.22 1022.34 1022.29 1022.21 1022.15 1021.88 1021.49 1021.17
1007.83 1008.27 1007.71 1007.98 1009.45 1008.63 1009.10 1008.73 1008.31 1009.24 1009.28 1008.96 1008.85 1008.98 1009.26 1010.46 1010.90 1011.53 1012.38 1013.38 1014.23 1015.19 1016.18 1016.85 1017.68 1018.46 1019.66 1020.28 1020.81 1021.40 1021.88 1022.27 1022.55 1022.55 1022.62 1022.63 1022.56 1022.28 1022.42 1022.40 1022.47 1022.28 1022.20 1022.04
1008.90 1008.57 1008.73 1008.24 1008.93 1009.61 1009.48 1009.54 1009.87 1009.82 1010.14 1010.05 1009.78 1009.81 1010.07 1010.99 1011.52 1012.19 1013.00 1013.95 1014.85 1015.65 1016.42 1017.17 1018.00 1018.99 1019.77 1020.14 1020.42 1021.35 1021.88 1022.17 1022.37 1022.66 1022.62 1022.55 1022.73 1022.65 1022.67 1022.58 1022.54 1022.59 1022.65 1022.38
1008.88 1009.55 1009.35 1009.37 1009.36 1009.74 1010.01 1010.29 1010.49 1010.65 1010.81 1010.76 1010.66 1010.47 1010.75 1011.23 1011.97 1012.64 1013.39 1014.18 1015.03 1015.83 1016.49 1017.19 1017.79 1018.35 1019.26 1020.13 1020.68 1021.09 1021.21 1021.66 1022.11 1022.19 1022.41 1022.56 1022.62 1022.76 1022.65 1022.54 1022.22 1022.09 1022.31 1022.64
1008.50 1009.41 1009.34 1009.23 1009.56 1010.01 1010.34 1010.51 1010.81 1011.28 1011.56 1011.48 1011.48 1011.39 1011.34 1011.72 1012.28 1012.85 1013.65 1014.34 1015.09 1015.89 1016.38 1016.99 1017.60 1018.11 1018.87 1019.51 1020.05 1020.67 1021.40 1021.64 1021.78 1022.00 1022.14 1022.24 1022.15 1022.62 1022.52 1023.03 1024.22 1024.11 1024.60 1025.11
1008.62 1008.90 1009.04 1008.77 1009.11 1010.00 1010.06 1010.57 1011.22 1011.48 1011.74 1011.94 1012.09 1012.23 1012.47 1012.50 1012.80 1013.32 1013.81 1014.61 1015.17 1015.85 1016.39 1016.97 1017.42 1018.00 1018.79 1019.47 1020.00 1020.47 1020.95 1021.23 1021.13 1021.43 1021.52 1021.61 1021.25 1021.67 1021.69 1022.51 1024.15 1025.75 1025.69 1025.96
Wind_Speed
17 14 16 19 20 17 3 3 5 15 14 11 10 7 3 8 6 11 15 15 17 17 19 16 15 16 14 15 13 11 5 10 4 5 6 4 4 3 4 5 7 3 6 3
13 17 18 19 14 9 20 19 9 20 23 8 13 5 4 8 10 11 11 19 19 21 20 16 16 16 16 14 14 12 11 11 9 7 2 1 2 1 1 5 6 6 5 4
15 15 18 14 10 14 15 11 2 7 14 13 14 5 6 5 12 19 20 18 17 17 23 20 17 17 17 16 13 12 10 11 9 3 4 1 2 2 4 3 6 6 5 6
16 16 18 7 14 15 13 19 10 19 18 9 6 5 12 8 7 10 20 16 18 18 11 20 19 16 16 17 14 14 11 11 8 6 8 4 2 2 5 4 1 7 5 6
16 17 13 15 17 15 6 17 29 23 12 19 15 7 11 15 5 7 19 10 18 15 13 9 21 17 16 16 15 14 12 10 7 8 6 7 7 3 2 4 5 2 6 6
20 8 12 16 15 13 5 10 8 12 10 2 14 12 13 13 10 5 16 14 16 23 25 26 19 18 14 16 12 14 13 11 9 8 7 3 1 4 4 2 3 4 7 8
16 9 13 15 17 8 13 15 6 7 3 6 14 9 7 20 21 16 19 22 18 10 18 15 15 9 11 12 13 13 14 12 11 10 8 7 6 4 4 5 5 4 4 6
14 15 18 10 18 12 16 19 7 8 6 8 17 6 14 24 24 23 25 22 22 23 14 12 19 12 13 14 16 15 15 12 12 11 7 6 6 7 5 4 4 4 5 5
15 17 18 14 13 16 14 18 14 7 5 7 8 10 5 16 18 14 16 23 19 18 24 22 17 22 5 7 10 15 11 10 12 11 9 7 5 7 3 1 4 5 5 7
11 12 18 15 13 18 17 15 17 11 14 8 5 5 8 17 17 16 16 15 23 21 18 15 15 15 12 9 6 10 9 2 5 9 10 9 9 7 6 5 6 7 4 9
9 11 14 13 16 18 14 12 14 17 14 12 7 5 4 13 18 13 9 13 17 20 18 11 9 13 16 14 15 8 10 7 1 6 7 6 9 6 8 6 6 7 7 5
16 10 14 18 15 18 16 17 16 13 18 14 9 3 12 12 11 14 9 6 6 12 7 10 9 13 16 14 12 10 8 10 2 2 4 4 8 9 3 6 6 7 5 6
7 12 13 9 16 13 14 14 20 16 16 16 14 8 12 10 10 13 13 8 7 8 7 7 6 5 14 14 15 13 11 11 9 6 5 7 5 5 6 5 6 8 8 6
9 14 16 9 4 17 19 20 21 19 15 16 13 20 16 15 14 13 13 12 9 6 7 6 4 2 7 10 10 10 10 9 9 7 5 4 3 2 4 2 6 7 9 9
8 16 17 5 15 22 20 21 9 15 16 12 3 6 16 16 15 13 14 10 11 11 10 8 5 4 0 3 10 12 13 10 10 10 10 8 4 4 6 5 5 5 6 7
11 7 14 12 10 10 13 16 22 18 17 19 2 9 4 15 15 13 13 13 12 10 11 11 7 6 4 1 3 9 12 13 10 9 9 8 8 7 8 8 4 4 3 2
11 7 7 16 9 10 9 9 9 11 7 7 7 15 11 11 11 12 11 8 9 8 9 9 8 6 5 5 4 6 4 7 9 5 4 6 7 5 4 5 3 6 2 3
10 5 16 3 12 13 10 12 8 7 9 6 3 8 5 9 10 9 10 9 9 9 9 9 9 8 7 7 7 7 8 6 8 8 8 7 8 5 2 2 2 1 2 1
9 6 7 6 1 8 7 3 5 2 14 6 7 3 9 9 11 8 5 9 10 10 7 9 9 9 9 9 8 8 9 10 9 7 7 6 5 5 4 1 3 4 5 4
3 4 6 10 9 5 4 6 3 3 6 6 5 3 7 7 9 11 8 10 11 13 11 11 13 11 11 8 7 9 8 8 8 8 7 7 6 5 4 4 3 2 2 2
8 8 9 7 5 5 13 4 1 9 6 4 3 6 5 4 6 9 10 11 10 12 14 14 12 11 11 9 9 9 8 8 6 6 5 5 5 5 4 3 3 4 4 3
3 5 5 4 6 5 3 5 4 7 5 4 1 4 6 6 7 10 11 11 11 13 12 11 11 12 12 10 10 9 8 7 5 4 6 3 4 2 4 3 3 3 2 1
5 5 4 5 7 6 6 9 5 5 6 4 3 6 4 5 8 10 11 11 11 12 10 11 12 11 8 6 8 9 8 6 6 5 4 4 2 3 2 3 3 3 1 5
7 1 5 2 8 3 5 5 4 4 5 4 4 2 5 6 9 10 11 11 11 10 11 11 11 11 10 9 7 5 7 8 6 4 3 3 3 2 3 4 3 4 4 5
3 9 7 6 4 3 5 5 5 5 1 2 3 3 1 5 6 9 9 10 11 11 10 10 10 9 9 8 9 11 9 7 6 5 5 4 4 6 5 5 9 8 9 7
7 6 7 3 3 7 2 10 5 5 4 2 3 3 3 1 4 5 8 8 9 10 10 9 9 9 10 9 8 6 6 5 5 6 6 6 5 5 6 6 6 12 11 7
Wind_Direction
202 208 217 209 221 127 301 92 313 162 140 106 112 140 192 229 256 274 176 175 168 168 152 162 162 148 149 156 160 157 134 128 143 193 193 148 240 150 162 91 116 172 142 166
186 220 228 245 231 222 173 151 222 215 154 121 152 141 176 179 236 254 260 194 173 170 153 166 164 158 159 162 164 168 159 153 186 193 8 337 77 190 86 118 152 203 179 162
214 213 233 218 238 246 230 190 151 278 127 115 134 134 179 117 200 257 264 242 166 177 162 171 175 167 160 160 172 174 182 157 208 210 151 152 21 291 163 169 177 179 187 189
236 240 203 194 243 239 260 150 137 237 149 139 201 162 195 163 159 275 235 238 170 177 214 165 170 181 173 158 173 167 184 162 199 213 137 198 150 213 247 304 157 153 198 191
216 240 214 208 226 233 69 279 149 199 132 125 192 209 141 159 169 246 246 199 206 190 179 270 173 186 177 160 169 165 176 179 196 187 269 171 215 160 284 33 163 342 164 199
250 228 207 229 222 226 228 254 252 128 129 173 183 223 162 169 164 211 257 222 231 176 207 196 183 169 185 160 161 161 165 176 186 186 207 221 280 284 31 349 243 224 175 187
233 210 220 242 214 179 226 233 217 221 91 312 136 227 136 141 152 192 222 240 216 191 206 222 170 153 169 154 163 155 163 176 180 186 195 209 203 247 226 243 253 315 126 255
206 196 219 206 233 189 216 240 207 223 233 139 161 209 144 158 171 175 193 215 203 180 226 206 166 164 191 176 167 165 162 174 178 183 197 214 198 218 228 204 292 264 335 187
196 241 170 194 232 235 197 238 239 265 275 154 285 94 100 168 178 191 208 189 206 223 177 199 203 157 94 147 178 149 161 182 177 180 179 206 217 252 3 334 281 296 234 16
311 216 169 195 219 241 264 199 238 237 233 279 142 168 140 176 183 194 190 205 187 201 209 190 152 161 152 141 134 144 184 181 165 202 180 188 207 218 239 228 242 281 332 151
280 268 166 198 203 213 211 244 223 247 238 244 174 174 147 176 157 174 170 182 185 193 197 186 148 162 147 161 166 144 142 144 313 194 266 191 196 200 205 215 225 238 286 334
240 282 247 189 219 231 223 216 221 237 232 253 239 147 318 121 142 145 138 111 71 56 146 154 165 138 150 168 173 166 137 126 129 329 269 220 242 240 206 219 211 243 233 261
287 233 248 232 180 203 240 234 227 235 255 246 257 120 133 130 138 134 140 140 136 109 107 101 140 185 154 172 184 183 184 163 160 220 254 229 223 223 269 315 285 251 220 244
296 257 248 204 269 200 209 239 216 232 218 240 224 134 157 163 144 138 130 138 133 142 137 133 177 184 186 181 179 186 188 188 169 157 134 172 170 252 285 270 273 286 274 211
254 258 272 193 258 259 184 217 232 240 260 252 323 146 146 149 143 145 143 151 157 155 157 139 141 90 86 193 187 189 189 186 184 189 198 215 181 222 239 226 233 241 276 258
314 306 279 178 239 282 176 195 207 218 236 248 33 143 99 107 118 135 144 163 170 160 139 152 130 131 121 196 237 199 186 192 194 197 194 194 196 222 220 221 208 224 238 304
286 326 237 223 189 200 211 208 221 229 219 272 298 85 125 124 130 133 137 154 141 153 137 141 139 128 96 56 62 82 81 181 179 153 128 159 138 131 119 131 88 25 230 192
240 174 281 45 339 224 64 346 24 87 69 337 63 81 94 112 113 120 132 157 135 136 135 135 123 113 94 69 54 65 53 71 112 113 108 108 99 100 111 180 126 66 326 331
209 198 300 119 263 291 148 139 302 257 129 52 58 84 94 108 109 106 123 127 149 139 134 119 115 108 104 89 71 71 74 59 56 67 94 100 115 139 138 142 217 202 220 225
274 218 215 271 178 204 358 38 350 322 190 78 75 87 123 144 204 129 134 129 121 122 115 111 115 113 105 102 99 91 77 81 72 51 26 75 74 79 65 53 35 356 326 267
195 257 266 265 264 152 262 98 299 228 69 18 327 107 129 101 63 116 122 110 114 106 117 122 115 109 108 111 107 97 99 89 96 94 99 71 64 81 75 63 26 352 348 127
209 248 259 186 288 190 34 179 320 69 95 45 67 91 98 87 118 136 131 132 127 124 129 118 119 123 132 126 111 103 99 113 91 88 86 56 57 87 81 78 41 358 96 358
273 270 318 327 36 75 58 67 86 67 77 47 27 111 114 136 134 140 140 140 143 145 131 136 129 125 118 101 131 128 138 143 124 122 86 81 6 43 169 162 177 173 216 300
196 109 249 34 158 136 116 114 122 60 61 22 20 51 148 147 150 152 153 157 151 148 155 146 145 140 141 147 137 122 138 146 156 140 150 161 215 243 280 250 185 241 197 197
10 146 228 235 121 146 181 185 160 123 108 41 31 23 93 147 165 161 164 165 160 160 166 157 163 157 151 151 147 152 162 162 168 175 184 191 192 213 175 48 21 352 52 22
198 230 217 246 134 194 334 173 185 173 183 122 101 106 61 142 156 168 164 171 173 168 172 171 174 164 158 160 156 152 161 185 196 189 192 195 211 181 216 150 139 57 64 54